HO-113
1 50466U 21131B   25350.32995407  .00000628  00000-0  20871-3 0  9990
2 50466  98.5050  78.7330 0003110 293.0690  67.0171 14.41118105208774
SNUGLITE 2
1 52899U 22065F   25350.35662255  .00001262  00000-0  25074-3 0  9999
2 52899  98.1930 130.8690 0006615 232.4188 127.6414 14.63846631184244
UmKA 1 (RS40S)
1 57172U 23091G   25350.30132288  .00005519  00000-0  27237-3 0  9993
2 57172  97.5344  44.7507 0014459  41.9897 318.2442 15.18219007136237
CubeBel-2 (EU11S)
1 57175U 23091K   25350.33213892  .00009740  00000-0  40273-3 0  9995
2 57175  97.5342  47.3007 0011824  44.7951 315.4239 15.24124683136401
RS-38S
1 57189U 23091Z   25350.30444850  .00012008  00000-0  42231-3 0  9994
2 57189  97.5368  51.7541 0008448  11.2359 348.9068 15.29473802136670
SONATE-2
1 59112U 24043Q   25350.34428391  .00022655  00000-0  47664-3 0  9990
2 59112  97.5324 126.7303 0009109 148.9866 211.1922 15.45268476 99535
MO-122
1 60209U 24125G   25350.08870127  .00025304  00000-0  50944-3 0  9998
2 60209  97.2523 200.4630 0014432 165.3176 194.8496 15.46463710 81125
GRBBeta
1 60237U 24128C   25350.14037125  .00003847  00000-0  27707-3 0  9991
2 60237  61.9889 137.6585 0056098  97.2581 263.4892 15.04791621 78708
Curium One
1 60242U 24128H   25349.91028585  .00007171  00000-0  44915-3 0  9994
2 60242  61.9781 133.2650 0055937  94.0390 266.7100 15.08955553 78768
ROBUSTA-3A
1 60243U 24128J   25350.11394350  .00005756  00000-0  37026-3 0  9997
2 60243  61.9857 134.0957 0056102  91.5356 269.2165 15.08269333 78775
CatSat
1 60246U 24125J   25350.11711812  .00029557  00000-0  70726-3 0  9992
2 60246  97.2314 197.4655 0034205 132.2228 228.1931 15.40790054 79048
HYPERVIEW-1G (RS66S)
1 61772U 24199AP  25350.29807900  .00033945  00000-0  64561-3 0  9997
2 61772  97.3212 219.7780 0008045 220.5082 139.5570 15.48136575106168
AO-123
1 61781U 24199AY  25350.33037769  .00008676  00000-0  28233-3 0  9999
2 61781  97.3254 215.7410 0012894 241.1259 118.8689 15.32028438105893
ZIMSAT 2
1 61783U 24199BA  25350.35455509  .00210619  00000-0  13938-2 0  9996
2 61783  97.3082 223.5014 0004329 170.0354 190.0997 15.74924289109579
HADES-R (SO-124)
1 62690U 25009CK  25349.78262861  .00119717  00000-0  14669-2 0  9996
2 62690  97.3870  72.5224 0001089 260.3917  99.7217 15.59953125 51250
HYDRA-T
1 62692U 25009CM  25350.20573713  .00161555  00000-0  18106-2 0  9995
2 62692  97.3866  73.1751 0001558 274.6268  85.4812 15.62145593 51335
JINJUSat 1B
1 63210U 25052A   25350.19360384  .00012467  00000-0  47549-3 0  9997
2 63210  97.4208 242.3274 0005221  38.5928 321.5683 15.26806437 42111
NUSHSAT 1
1 63211U 25052B   25350.25202811  .00014873  00000-0  54845-3 0  9995
2 63211  97.4188 242.5118 0005329  41.6019 318.5625 15.27881203 42132
TEVEL2-4
1 63213U 25052D   25350.25443802  .00013532  00000-0  50976-3 0  9996
2 63213  97.4111 242.0588 0004852  56.1293 304.0407 15.27200780 42123
TEVEL2-5
1 63214U 25052E   25350.19454719  .00013331  00000-0  50339-3 0  9999
2 63214  97.4104 241.9864 0004850  56.1595 304.0105 15.27122682 42112
TEVEL2-6
1 63215U 25052F   25350.26748809  .00013509  00000-0  51079-3 0  9993
2 63215  97.4109 242.0472 0004994  55.7929 304.3782 15.27076342 42126
TEVEL2-1
1 63217U 25052H   25350.24538133  .00013389  00000-0  51132-3 0  9996
2 63217  97.4084 241.8332 0005281  64.1094 296.0688 15.26745992 42113
TEVEL2-3
1 63218U 25052J   25350.24453119  .00013317  00000-0  50823-3 0  9994
2 63218  97.4085 241.8379 0005312  65.1116 295.0674 15.26768885 42117
TEVEL2-2
1 63219U 25052K   25350.24614726  .00013227  00000-0  50515-3 0  9996
2 63219  97.4084 241.8335 0005283  65.5110 294.6680 15.26746842 42115
TEVEL2-9
1 63237U 25052AD  25350.27824693  .00011656  00000-0  46578-3 0  9993
2 63237  97.4148 241.5676 0009292  72.2331 287.9920 15.25242118 42089
TEVEL2-7
1 63238U 25052AE  25350.22689920  .00011689  00000-0  46918-3 0  9995
2 63238  97.4148 241.4904 0009422  72.5072 287.7195 15.25088269 42079
TEVEL2-8
1 63239U 25052AF  25350.23259564  .00011799  00000-0  47394-3 0  9995
2 63239  97.4150 241.4803 0009430  72.6545 287.5724 15.25062668 42077
HYDRA-W
1 63490U 25052BL  25350.20695200  .00054053  00000-0  12655-2 0  9993
2 63490  97.4064 244.0378 0011478  63.2098 297.0322 15.41873107 42256
HADES-ICM (SO-125)
1 63492U 25052BN  25350.20620693  .00046478  00000-0  11643-2 0  9997
2 63492  97.4074 243.7581 0011685  65.7622 294.4844 15.39856879 42233
Dragonfly
1 65729U 98067XH  25350.36069264  .00153726  00000-0  10798-2 0  9991
2 65729  51.6242 117.2037 0007067 301.2639  58.7667 15.73131629 13737
RSP-03
1 65732U 98067XL  25349.41416620  .00103156  00000-0  85709-3 0  9998
2 65732  51.6255 122.8946 0005631 270.0098  90.0254 15.69333488 13589
GHS-01
1 65733U 98067XM  25349.73472232  .00180872  00000-0  11102-2 0  9990
2 65733  51.6274 119.7831 0007600 301.7085  58.3173 15.76152522 13656
BOTAN
1 65942U 98067XP  25350.36201080  .00090028  00000-0  94318-3 0  9998
2 65942  51.6278 120.9830 0002853 270.5076  89.5591 15.63646784 10430
BEE-1000
1 66650U 25274A   25350.30769727  .00000999  00000-0  10485-3 0  9997
2 66650  97.7394 277.4297 0010513 238.1589 121.8606 14.91676067  2933
SPIRONE
1 66657U 25274H   25350.23060615  .00002402  00000-0  23947-3 0  9994
2 66657  97.7393 277.3758 0010578 262.6845  97.3172 14.92477724  2922
K-HERO
1 66660U 25274L   25350.29096818  .00002865  00000-0  28078-3 0  9991
2 66660  97.7397 277.4522 0012479 267.6220  92.3571 14.92982490  2934
SNUGLITE-III DURI
1 66661U 25274M   25350.28904089  .00002484  00000-0  24332-3 0  9995
2 66661  97.7397 277.4539 0013107 268.9233  91.0485 14.93117787  2930
SilverSat
1 66909U 98067XV  25349.62370561  .00048941  00000-0  79995-3 0  9991
2 66909  51.6296 128.0480 0004117 244.8670 115.1892 15.52037636  2061
CEVROSAT1
1 98526U 25248E   25313.13142326  .00000000  00000-0  19360-3 0    02
2 98526  45.4084 218.4764 0001315 254.8982 242.1062 15.17981583    02
